Ithaca, NY

9:05 PM EST on December 11, 2017 (GMT -0500)
Tompkins County

Weather History for KITH - May, 2014

Change the Weather History Date:

Monday, May 19, 2014

  Actual Average Record
Temperature  
Mean Temperature 50 °F -  
Max Temperature 65 °F 66 °F 89 °F (1962)
Min Temperature 34 °F 45 °F 28 °F (1944)
Degree Days  
Heating Degree Days 16    
Moisture  
Dew Point 40 °F    
Average Humidity 70    
Maximum Humidity 100    
Minimum Humidity 38    
Precipitation  
Precipitation 0.01 in - - ()
Sea Level Pressure  
Sea Level Pressure 30.22 in    
Wind  
Wind Speed 5 mph (North)    
Max Wind Speed 15 mph    
Max Gust Speed 23 mph    
Visibility 10 miles    
Events      
Averages and records for this station are not official NWS values.
T = Trace of Precipitation, MM = Missing Value Source: NWS Daily Summary

Daily Weather History Graph

Daily Weather History Graph

Search for Another Location

Airport or City:

Trip Planner

Search our weather history database for the weather conditions in past years. The results will help you decide how hot, cold, wet, or windy it might be!

Date:

Astronomy

May. 19, 2014 Rise Set
Actual Time 5:40 AM EDT 8:25 PM EDT
Civil Twilight 5:07 AM EDT 8:57 PM EDT
Nautical Twilight 4:26 AM EDT 9:39 PM EDT
Astronomical Twilight 3:39 AM EDT 10:26 PM EDT
Moon 12:09 AM EDT (5/19) 10:37 AM EDT (5/19)
Length of Visible Light 15h 50m
Length of Day
14h 44m
Waning Gibbous, 71% of the Moon is Illuminated
May 19
Waning Gibbous
May 21
Last Quarter
May 28
New
Jun 5
First Quarter
Jun 13
Full

Hourly Weather History & Observations

Time (EDT) Temp. Windchill Dew Point Humidity Pressure Visibility Wind Dir Wind Speed Gust Speed Precip Events Conditions
12:56 AM 37.9 °F - 36.9 °F 96% 30.25 in 10.0 mi Calm Calm - N/A   Clear
2:56 AM 36.0 °F - 36.0 °F 100% 30.24 in 10.0 mi Calm Calm - N/A   Clear
3:56 AM 36.0 °F 32.1 °F 34.9 °F 96% 30.24 in 10.0 mi East 4.6 mph - N/A   Clear
4:56 AM 34.9 °F 32.0 °F 34.9 °F 100% 30.25 in 10.0 mi East 3.5 mph - N/A   Clear
5:56 AM 34.9 °F 30.8 °F 34.9 °F 100% 30.26 in 10.0 mi East 4.6 mph - N/A   Clear
6:21 AM 35.6 °F 31.7 °F 35.6 °F 100% 30.25 in 10.0 mi East 4.6 mph - N/A   Clear
6:56 AM 38.8 °F 35.4 °F 36.9 °F 93% 30.27 in 10.0 mi East 4.6 mph - N/A   Clear
7:56 AM 48.9 °F - 37.9 °F 66% 30.26 in 10.0 mi Calm Calm - N/A   Clear
10:56 AM 59.9 °F - 39.9 °F 48% 30.26 in 10.0 mi NW 10.4 mph - N/A   Scattered Clouds
11:56 AM 63.9 °F - 39.9 °F 41% 30.25 in 10.0 mi WNW 13.8 mph - N/A   Mostly Cloudy
12:56 PM 64.9 °F - 38.8 °F 38% 30.23 in 10.0 mi NW 13.8 mph 21.9 mph N/A   Mostly Cloudy
1:56 PM 63.0 °F - 38.8 °F 41% 30.21 in 10.0 mi WNW 12.7 mph - N/A   Mostly Cloudy
2:56 PM 64.9 °F - 41.0 °F 42% 30.19 in 10.0 mi NNW 13.8 mph 19.6 mph N/A   Mostly Cloudy
3:56 PM 64.9 °F - 41.0 °F 42% 30.19 in 10.0 mi NW 10.4 mph - N/A   Scattered Clouds
4:56 PM 65.8 °F - 41.9 °F 42% 30.17 in 10.0 mi NNW 11.5 mph - N/A   Mostly Cloudy
5:56 PM 63.9 °F - 37.9 °F 38% 30.18 in 10.0 mi NNW 15.0 mph 23.0 mph N/A   Scattered Clouds
6:56 PM 61.0 °F - 37.9 °F 42% 30.18 in 10.0 mi North 6.9 mph - N/A   Mostly Cloudy
7:56 PM 55.9 °F - 45.9 °F 69% 30.18 in 10.0 mi Calm Calm - 0.01 in   Mostly Cloudy
8:56 PM 50.9 °F - 48.9 °F 93% 30.19 in 10.0 mi North 3.5 mph - N/A   Mostly Cloudy
9:56 PM 52.9 °F - 45.0 °F 74% 30.20 in 10.0 mi NW 15.0 mph 18.4 mph N/A   Overcast
10:56 PM 47.8 °F - 43.9 °F 86% 30.19 in 10.0 mi Calm Calm - N/A   Clear
11:56 PM 46.9 °F - 45.9 °F 96% 30.19 in 10.0 mi Calm Calm - N/A   Overcast